Content
SEND FEEDBACK

Daily
Averages
Monthly
Summary
United States of America

MEADOW, SOUTH DAKOTA


Home > North America > United States > South Dakota
Elevation: 2453 feet     Latitude: 45 15N     Longitude: 102 19W

WEATHER
 
SELECT A DAY
Number of Records: 137,261;   Date Range: 5/27/98 - 12/17/14
 
SHARE

PRINT THIS DATA

[ ← Previous Day ]
WEATHER ALMANAC - JANUARY 23, 2013
[ Next Day → ]
[ °C ]   °F
Weather ElementAverageHighLow
Temperature8.3 °F12 °F (1:56 am)3 °F (9:56 pm)
Dewpoint3 °F9 °F (1:56 am)-0.9 °F (9:56 pm)
Humidity79.3 %92 % (4:56 am)67 % (2:56 pm)
Barometer30.45 in30.53 in (4:56 pm)30.27 in (1:56 am)
Wind Speed10.6 mph20.7 mph (11:56 pm)
Weather ElementAverage
Wind DirectionSSW (202.6 °)

Weather ElementTotal
Precipitation---
Heating Degree Days57.5 (Base 65)
Averaged from 23 records on January 23, 2013
WEATHER CONDITIONS BREAKOUT
WIND DIRECTION BREAKOUT
WEATHER BY HOUR - JANUARY 23, 2013
[ °C ]   °F
Local TimeTemperatureDewpointHumidityBarometerVisibilityWind DirectionWind SpeedGust SpeedPrecipitationEventsConditions
1:56 AM12.0 °F9.0 °F88 %30.27 inNorth (360°)13.8 mph
2:56 AM12.0 °F8.1 °F84 %30.28 inNorth (10°)13.8 mph
3:56 AM9.0 °F6.1 °F88 %30.30 inNorth (360°)8.1 mph
4:56 AM7.0 °F5.0 °F92 %30.33 inNorth (360°)9.2 mph
5:56 AM7.0 °F3.9 °F87 %30.37 inNNW (340°)8.1 mph
6:56 AM5.0 °F3.0 °F92 %30.40 inNNW (340°)5.8 mph
7:56 AM7.0 °F3.9 °F87 %30.41 inNNW (330°)8.1 mph
8:56 AM9.0 °F3.9 °F80 %30.46 inNorth (360°)12.7 mph
9:56 AM9.0 °F3.0 °F77 %30.49 inNorth (360°)13.8 mph
10:56 AM10.9 °F3.9 °F73 %30.49 inNorth (360°)9.2 mph
11:56 AM10.9 °F3.0 °F70 %30.48 inNNE (30°)9.2 mph
12:56 PM10.9 °F3.0 °F70 %30.49 inNorth (350°)5.8 mph
1:56 PM12.0 °F3.9 °F70 %30.50 inNorth (10°)5.8 mph
2:56 PM12.0 °F3.0 °F67 %30.49 inNE (50°)8.1 mph
3:56 PM10.9 °F3.0 °F70 %30.51 inEast (90°)8.1 mph
4:56 PM10.0 °F1.0 °F67 %30.53 inEast (90°)5.8 mph
5:56 PM9.0 °F1.9 °F73 %30.52 inEast (100°)5.8 mph
6:56 PM8.1 °F1.0 °F73 %30.53 inESE (120°)6.9 mph
7:56 PM7.0 °F1.9 °F80 %30.52 inSE (130°)17.3 mph
8:56 PM3.9 °F0.0 °F84 %30.51 inSE (130°)12.7 mph
9:56 PM3.0 °F-0.9 °F84 %30.49 inSE (130°)15.0 mph
10:56 PM3.0 °F-0.9 °F84 %30.48 inESE (120°)19.6 mph
11:56 PM3.0 °F-0.9 °F84 %30.45 inSE (130°)20.7 mph
Hourly data recorded from KD07, located miles away from Meadow, South Dakota







STORIES FROM OUR PARTNERS